Home > Weather > Huddersfield > Past weeks

Flag for United Kingdom Past Weather in Huddersfield, England, United Kingdom — Yesterday and Last 2 Weeks

Now
52 °F

Passing clouds.


Feels Like: 49 °F
Forecast: 54 / 66 °F
Wind: 7 mph from West

Location: Leeds And Bradford

Current Time: Jul 28, 2016 at 5:57:03 AM

Latest Report: Jul 28, 2016 at 5:20 AM


Visibility: N/A

Pressure: 29.95 "Hg

Humidity: 100%

Dew Point: 52 °F

Location of HuddersfieldLocation

Past Weather in Huddersfield — Graph

°F

Huddersfield Temperature Yesterday

Maximum temperature yesterday: 68 °F (at 3:50 PM)
Minimum temperature yesterday: 54 °F (at 10:20 PM)
Average temperature yesterday: 61 °F

High & Low Weather Summary for the Past Weeks

 TemperatureHumidityPressure
High82 °F (Jul 19, 1:50 PM)100% (Jul 14, 3:50 AM)30.27 "Hg (Jul 14, 3:50 AM)
Low48 °F (Jul 14, 3:50 AM)45% (Jul 19, 2:20 PM)29.71 "Hg (Jul 20, 10:20 AM)
Average62 °F84%30.06 "Hg
* Reported Jul 13 4:20 AM — Jul 28 4:20 AM, Huddersfield, Weather by CustomWeather, © 2016

Note: Actual official high and low records may vary slightly from our data, if they occured in-between our weather recording intervals... More about our weather records

Advertising

Huddersfield Weather History for the Previous 24 Hours

Scroll right to see more
 ConditionsComfort  
Time TempWeatherWind HumidityBarometerVisibility
4:20 AM
Thu, Jul 28
50 °FClear.7 mph100%29.95 "Hg10 mi
3:50 AM50 °FClear.7 mph100%29.98 "Hg10 mi
3:20 AM50 °FClear.7 mph100%29.98 "Hg10 mi
2:50 AM52 °FClear.9 mph100%29.98 "Hg10 mi
2:20 AM52 °FClear.12 mph100%29.98 "Hg10 mi
1:50 AM54 °FClear.10 mph94%29.98 "Hg10 mi
1:20 AM54 °FClear.13 mph94%29.98 "Hg10 mi
12:50 AM54 °FClear.10 mph94%29.98 "Hg10 mi
12:20 AM54 °FClear.10 mph94%29.98 "Hg10 mi
11:50 PM
Wed, Jul 27
54 °FClear.12 mph94%29.98 "Hg10 mi
11:20 PM54 °FClear.12 mph94%30.01 "Hg10 mi
10:50 PM54 °FClear.10 mph94%29.98 "Hg10 mi
10:20 PM54 °FClear.12 mph94%29.98 "Hg10 mi
9:50 PM55 °FSunny.12 mph88%29.98 "Hg10 mi
9:20 PM55 °FSunny.12 mph88%29.98 "Hg10 mi
8:50 PM57 °FPassing clouds.13 mph88%29.98 "HgN/A
8:20 PM57 °FPassing clouds.14 mph88%29.98 "HgN/A
7:50 PM59 °FPassing clouds.18 mph82%29.98 "HgN/A
7:20 PM59 °FPassing clouds.13 mph82%29.98 "HgN/A
6:50 PM61 °FPassing clouds.18 mph77%29.98 "HgN/A
6:20 PM63 °FPassing clouds.17 mph73%29.98 "HgN/A
5:50 PM63 °FPassing clouds.16 mph77%29.98 "HgN/A
5:20 PM64 °FPassing clouds.17 mph73%29.98 "HgN/A
4:50 PM64 °FScattered clouds.18 mph73%29.95 "HgN/A
4:20 PM66 °FScattered clouds.15 mph68%29.95 "HgN/A
3:50 PM68 °FScattered clouds.17 mph69%29.95 "HgN/A
3:20 PM66 °FScattered clouds.14 mph68%29.95 "HgN/A
2:50 PM64 °FScattered clouds.14 mph78%29.95 "HgN/A
2:20 PM66 °FScattered clouds.13 mph68%29.95 "HgN/A
1:50 PM64 °FScattered clouds.14 mph73%29.95 "HgN/A
1:20 PM64 °FScattered clouds.13 mph78%29.95 "HgN/A
12:50 PM66 °FScattered clouds.13 mph73%29.95 "HgN/A
12:20 PM64 °FScattered clouds.10 mph78%29.92 "HgN/A
11:50 AM64 °FScattered clouds.10 mph78%29.92 "HgN/A
11:20 AM63 °FScattered clouds.8 mph83%29.92 "HgN/A
10:50 AM63 °FScattered clouds.8 mph83%29.92 "HgN/A
10:20 AM63 °FScattered clouds.9 mph83%29.92 "HgN/A
9:50 AM63 °FScattered clouds.6 mph83%29.92 "HgN/A
9:20 AM61 °FScattered clouds.12 mph88%29.89 "HgN/A
8:50 AM61 °FScattered clouds.10 mph88%29.89 "HgN/A
8:20 AM61 °FPassing clouds.10 mph94%29.89 "HgN/A
7:50 AM61 °FScattered clouds.10 mph94%29.89 "HgN/A
7:20 AM59 °FScattered clouds.16 mph94%29.86 "HgN/A
6:50 AM59 °FBroken clouds.13 mph94%29.86 "HgN/A
6:20 AM59 °FLight rain. Broken clouds.10 mph100%29.86 "HgN/A
5:50 AM59 °FLight rain. Partly cloudy.9 mph100%29.86 "HgN/A
5:20 AM59 °FLight rain. Partly cloudy.9 mph100%29.83 "Hg3 mi
Weather by CustomWeather, © 2016

See weather overviewHow to use our weather pages